Details From OEDF - KING FAHD INTL
To OTBD - DOHA INTL
Flight Number -
Tags generated
Created
Modified
Stats Distance 120 nm / 222 km
Max Altitude 7,900 ft / 2,408 m
Waypoints 3
Social Downloads 1
Likes 0
Share VATSIM

Download

Looking for another format? Having issues loading an existing format? Contact us
Advertisement - Login to hide

Notes

Basic altitude profile: - Ascent Rate: 2500ft/min - Ascent Speed: 250kts - Cruise Altitude: 35000ft - Cruise Speed: 420kts - Descent Rate: 1500ft/min - Descent Speed: 250kts Options: - Use NATs: yes - Use PACOTS: yes - Use low airways: yes - Use high airways: yes

Route

OEDF DHA OTBD

ID Type Via Altitude Latitude Longitude Leg Dist Tot Dist Heading (true) Name
O OEDF APT - 0 ft / 0 m 26.47120˚ 49.79790˚ - 0 nm - KING FAHD INTL
DHA VOR - 7,900 ft / 2,408 m 26.26078˚ 50.14019˚ 22 nm 22 nm 124° / 125° DHAHRAN VORTAC
O OTBD APT - 0 ft / 0 m 25.26106˚ 51.56500˚ 97 nm 120 nm 128° / 128° DOHA INTL

Altitude Profile

Advertisement - Login to hide

OEDF

Details ICAO OEDF (DMM)
Name KING FAHD INTL
Region Saudi Arabia
Timezone Asia/Riyadh (UTC+3.0)
Stats Elevation 72 ft / 22 m (AMSL)
Location 26.471197° 49.797900°
Runways 2
Magnetic Variation 2.917° E

METAR

OEDF 262200Z 00000KT CAVOK 28/07 Q1005 NOSIG

Decode

TAF

TAF OEDF 261010Z 2612/2718 06015KT CAVOK BECMG 2618/2620 VRB04KT TEMPO 2700/2705 5000 HZ= TAF OEDR 261010Z 2612/2718 06015KT CAVOK BECMG 2618/2620 VRB04KT TEMPO 2700/2705 5000 HZ

Decode

Departure Runways

ID Width Length Bearing (true) Bearing (mag) Surface Threshold Offset Overrun Length
16L 197 ft / 60 m 13,170 ft / 4,014 m 164.55° 161.63° Asphalt 0 ft / 0 m 1,130 ft / 344 m
16R 197 ft / 60 m 13,170 ft / 4,014 m 164.54° 161.62° Asphalt 0 ft / 0 m 1,130 ft / 344 m
34L 197 ft / 60 m 13,170 ft / 4,014 m 344.54° 341.62° Asphalt 0 ft / 0 m 1,130 ft / 344 m
34R 197 ft / 60 m 13,170 ft / 4,014 m 344.55° 341.63° Asphalt 0 ft / 0 m 1,130 ft / 344 m

OTBD

Details ICAO OTBD (DOH)
Name DOHA INTL
Region Qatar
Timezone Asia/Qatar (UTC+3.0)
Stats Elevation 35 ft / 11 m (AMSL)
Location 25.261056° 51.564999°
Runways 1
Magnetic Variation 2.502° E

METAR

OTBD 262200Z 03003KT 9000 NSC 31/19 Q1005 NOSIG

Decode

TAF

TAF OTBD 261703Z 2618/2724 10005KT 8000 NSC BECMG 2619/2621 VRB02KT BECMG 2708/2710 11010KT

Decode

Destination Runways

ID Width Length Bearing (true) Bearing (mag) Surface Threshold Offset Overrun Length
16 151 ft / 46 m 15,065 ft / 4,592 m 158.20° 155.70° Asphalt 2,460 ft / 750 m 98 ft / 30 m
34 151 ft / 46 m 15,065 ft / 4,592 m 338.21° 335.71° Asphalt 0 ft / 0 m 460 ft / 140 m

Approach Navaids

Runway Type Ident Frequency Range Bearing (true) Bearing (mag) Slope Elevation
34 Localiser IBD 109.50 MHz 18 nm / 33 km 338.32° 335.82° - 38 ft / 12 m (AMSL)
34 Glidescope IBD 109.50 MHz 10 nm / 19 km 338.21° 335.71° 3.00° 35 ft / 11 m (AMSL)
34 DME IBD 109.50 MHz 18 nm / 33 km - - - 35 ft / 11 m (AMSL)

Popular Alternatives